Location: Estes P
(40.3770°N, 105.5210°W)
Time: 05:55:30
(UTC-06:00)

OTV 5 (USA 277) - Visible Passes

Search period start: 23 July 2018 00:00
Search period end: 02 August 2018 00:00
Orbit: 312 x 321 km, 54.5° (Epoch: 05 July)

Date Brightness Start Highest point End Pass type
(mag) Time Alt. Az. Time Alt. Az. Time Alt. Az.
27 Jul ? 05:09:37 10° S 05:11:45 21° SE 05:13:53 10° ENE visible
28 Jul ? 05:23:24 10° SW 05:26:04 68° SE 05:28:45 10° NE visible
29 Jul ? 04:06:16 13° SE 04:06:30 13° SE 04:07:47 10° E visible
30 Jul ? 04:20:20 33° SSE 04:20:44 36° SE 04:23:16 10° ENE visible
31 Jul ? 04:34:20 39° WSW 04:35:09 66° NW 04:37:49 10° NE visible
01 Aug ? 03:17:25 11° E 03:17:25 11° E 03:17:34 10° ENE visible
01 Aug ? 04:48:17 16° WNW 04:49:41 24° NNW 04:51:59 10° NNE visible
